Location: *
(33.8649°S, 62.1526°E)
Time: 03:18:21
(UTC+00:00)

Cosmos 2322 - Pass Details

Date: 17 January 2021
Orbit: 839 x 856 km, 71.0° (Epoch: 27 February)

Event Time Altitude Azimuth Distance (km) Brightness Sun altitude
Rises 22:27:14 0° 198° (SSW) 3,424 7.3 -25.5°
Reaches altitude 10° 22:29:44 10° 194° (SSW) 2,484 6.6 -25.2°
Maximum altitude 22:35:23 63° 113° (ESE) 945 4.1 -24.4°
Enters shadow 22:40:46 11° 32° (NNE) 2,379 5.9 -23.7°
